Regional Weather Roundup
Issued by NWS

Home | Current Version | Previous Version | Text Only | Print | Product List | Glossary Off
Versions: 1 2 3 4 5 6 7 8 9 10 11 12 13 14 15 16 17 18 19 20 21 22 23 24 25 26 27 28 29 30 31 32 33 34 35 36 37 38 39 40 41 42 43 44 45 46 47 48 49 50

889
ASUS45 KBOI 270810
RWRID

IDAHO REGIONAL WEATHER ROUNDUP
NATIONAL WEATHER SERVICE BOISE ID
200 AM MDT SAT MAY 27 2017

NOTE: "FAIR" INDICATES FEW OR NO CLOUDS BELOW 12000 FEET
WITH NO SIGNIFICANT WEATHER AND/OR OBSTRUCTIONS TO VISIBILITY

IDZ012-014-270900-
SOUTHWEST IDAHO


CITY           SKY/WX    TMP DP  RH WIND       PRES   REMARKS
BOISE          CLEAR     55  41  59 SE9       30.06S
CALDWELL       CLEAR     51  43  74 E5        30.07R
MOUNTAIN HOME  CLEAR     49  46  88 E12       30.08R
$$

IDZ016-017-270900-
SOUTHCENTRAL IDAHO


CITY           SKY/WX    TMP DP  RH WIND       PRES   REMARKS
BURLEY         CLEAR     40  38  93 SW5       30.11R
JEROME         CLEAR     45  42  89 E7        30.11R
TWIN FALLS     CLEAR     44  40  85 S9        30.10S
$$

IDZ019>023-270900-
SOUTHEAST IDAHO


CITY           SKY/WX    TMP DP  RH WIND       PRES   REMARKS
IDAHO FALLS    PTCLDY    41  39  93 CALM      30.14S
POCATELLO      CLEAR     39  39 100 E3        30.13R
REXBURG        CLOUDY    40  38  93 S3        30.14R
$$

IDZ006-010-011-018-031-032-270900-
CENTRAL IDAHO MOUNTAINS


CITY           SKY/WX    TMP DP  RH WIND       PRES   REMARKS
MCCALL         CLEAR     44  34  67 N6        30.13R
HAILEY         CLEAR     39  37  93 NW8       30.16R WCI  34
STANLEY          N/A     32  30  92 CALM      30.19R
SALMON         CLOUDY    48  41  76 CALM      30.09R
CHALLIS        MOCLDY    44  35  70 CALM      30.14R
$$

IDZ002-004-006-007-026-270900-
NORTHERN IDAHO


CITY           SKY/WX    TMP DP  RH WIND       PRES   REMARKS
LEWISTON       CLEAR     56  43  61 S7        30.04R
LOWELL           N/A     49  46  90 CALM      30.12R
COEUR D`ALENE  MOCLDY    57  43  59 S8        30.04R
MULLAN PASS    CLEAR     46  30  53 NW6       30.13R
$$




USA.gov is the U.S. government's official web portal to all federal, state and local government web resources and services.